| time (UTC) | temp F | wind direction | speed knots | gust knots | rain 1hr in | rain 24hr in | rain mn in | humidity % | barometer mb |
| 20260507142703 | 75 | 308 | 5.2 | 11.3 | 0.00 | 0.00 | 0.00 | 40 | 1015.7 |
| 20260507141803 | 74 | 306 | 7.8 | 12.2 | 0.00 | 0.00 | 0.00 | 41 | 1015.5 |
| 20260507140905 | 75 | 305 | 5.2 | 9.6 | 0.00 | 0.00 | 0.00 | 42 | 1015.6 |
| 20260507140003 | 74 | 315 | 7.0 | 11.3 | 0.00 | 0.00 | 0.00 | 42 | 1015.7 |
| 20260507135404 | 75 | 319 | 6.1 | 11.3 | 0.00 | 0.00 | 0.00 | 41 | 1015.7 |
| 20260507134503 | 75 | 310 | 5.2 | 11.3 | 0.00 | 0.00 | 0.00 | 41 | 1015.7 |
| 20260507133602 | 74 | 291 | 6.1 | 11.3 | 0.00 | 0.00 | 0.00 | 43 | 1015.7 |
| 20260507132725 | 74 | 300 | 5.2 | 8.7 | 0.00 | 0.00 | 0.00 | 43 | 1015.8 |
| 20260507131803 | 74 | 316 | 6.1 | 9.6 | 0.00 | 0.00 | 0.00 | 43 | 1015.8 |
| 20260507130924 | 74 | 315 | 5.2 | 12.2 | 0.00 | 0.00 | 0.00 | 44 | 1015.9 |
| 20260507130004 | 74 | 299 | 3.5 | 7.8 | 0.00 | 0.00 | 0.00 | 44 | 1015.7 |
| 20260507125403 | 74 | 290 | 3.5 | 9.6 | 0.00 | 0.00 | 0.00 | 46 | 1016.1 |
| 20260507124503 | 74 | 297 | 5.2 | 11.3 | 0.00 | 0.00 | 0.00 | 47 | 1016.1 |
| 20260507123603 | 73 | 309 | 6.1 | 12.2 | 0.00 | 0.00 | 0.00 | 48 | 1016.3 |
| 20260507122725 | 73 | 299 | 6.1 | 12.2 | 0.00 | 0.00 | 0.00 | 48 | 1016.4 |
| 20260507121803 | 75 | 291 | 2.6 | 12.2 | 0.00 | 0.00 | 0.00 | 46 | 1016.4 |
| 20260507120903 | 73 | 330 | 2.6 | 7.0 | 0.00 | 0.00 | 0.00 | 45 | 1016.4 |
| 20260507120024 | 73 | 308 | 4.3 | 7.8 | 0.00 | 0.00 | 0.00 | 47 | 1016.5 |
| 20260507115404 | 74 | 322 | 3.5 | 9.6 | 0.00 | 0.00 | 0.00 | 45 | 1016.6 |
| 20260507114503 | 74 | 351 | 2.6 | 9.6 | 0.00 | 0.00 | 0.00 | 46 | 1016.8 |
| 20260507113603 | 74 | 334 | 2.6 | 8.7 | 0.00 | 0.00 | 0.00 | 45 | 1016.8 |
| 20260507112703 | 73 | 340 | 2.6 | 11.3 | 0.00 | 0.00 | 0.00 | 46 | 1016.8 |
| 20260507111803 | 73 | 338 | 3.5 | 11.3 | 0.00 | 0.00 | 0.00 | 46 | 1017.0 |
| 20260507110903 | 73 | 321 | 3.5 | 7.8 | 0.00 | 0.00 | 0.00 | 46 | 1017.1 |
| 20260507110003 | 72 | 308 | 4.3 | 9.6 | 0.00 | 0.00 | 0.00 | 48 | 1017.4 |
| 20260507105404 | 72 | 304 | 5.2 | 11.3 | 0.00 | 0.00 | 0.00 | 48 | 1017.4 |
| 20260507104503 | 72 | 307 | 4.3 | 11.3 | 0.00 | 0.00 | 0.00 | 49 | 1017.5 |
| 20260507103603 | 72 | 314 | 4.3 | 9.6 | 0.00 | 0.00 | 0.00 | 48 | 1017.4 |
| 20260507102703 | 72 | 308 | 3.5 | 9.6 | 0.00 | 0.00 | 0.00 | 48 | 1017.5 |
| 20260507101803 | 72 | 302 | 4.3 | 11.3 | 0.00 | 0.00 | 0.00 | 47 | 1017.5 |
| 20260507100904 | 72 | 330 | 3.5 | 11.3 | 0.00 | 0.00 | 0.00 | 49 | 1017.5 |
| 20260507100003 | 70 | 312 | 4.3 | 8.7 | 0.00 | 0.00 | 0.00 | 49 | 1017.9 |
| 20260507095403 | 72 | 291 | 3.5 | 8.7 | 0.00 | 0.00 | 0.00 | 47 | 1017.9 |
| 20260507094503 | 71 | 358 | 3.5 | 11.3 | 0.00 | 0.00 | 0.00 | 47 | 1017.9 |
| 20260507093603 | 71 | 311 | 2.6 | 9.6 | 0.00 | 0.00 | 0.00 | 51 | 1018.2 |
| 20260507092703 | 70 | 308 | 4.3 | 8.7 | 0.00 | 0.00 | 0.00 | 50 | 1018.2 |
| 20260507091803 | 71 | 304 | 3.5 | 8.7 | 0.00 | 0.00 | 0.00 | 52 | 1018.3 |
| 20260507090903 | 70 | 318 | 5.2 | 9.6 | 0.00 | 0.00 | 0.00 | 53 | 1018.4 |
| 20260507090004 | 70 | 312 | 1.7 | 6.1 | 0.00 | 0.00 | 0.00 | 52 | 1018.3 |
| 20260507085403 | 69 | 276 | 2.6 | 7.8 | 0.00 | 0.00 | 0.00 | 51 | 1018.4 |
| 20260507084524 | 70 | 291 | 3.5 | 7.8 | 0.00 | 0.00 | 0.00 | 52 | 1018.7 |
| 20260507083603 | 68 | 291 | 4.3 | 8.7 | 0.00 | 0.00 | 0.00 | 53 | 1018.5 |
| 20260507082724 | 69 | 338 | 3.5 | 7.8 | 0.00 | 0.00 | 0.00 | 53 | 1018.7 |
| 20260507081824 | 69 | 316 | 4.3 | 8.7 | 0.00 | 0.00 | 0.00 | 54 | 1018.6 |
| 20260507080903 | 68 | 313 | 3.5 | 7.8 | 0.00 | 0.00 | 0.00 | 55 | 1018.9 |
| 20260507080005 | 68 | 296 | 3.5 | 7.8 | 0.00 | 0.00 | 0.00 | 55 | 1018.7 |
| 20260507075403 | 68 | 312 | 4.3 | 7.8 | 0.00 | 0.00 | 0.00 | 56 | 1018.6 |
| 20260507074504 | 68 | 331 | 3.5 | 7.0 | 0.00 | 0.00 | 0.00 | 59 | 1018.8 |
| 20260507073604 | 68 | 273 | 3.5 | 7.0 | 0.00 | 0.00 | 0.00 | 59 | 1018.8 |
| 20260507072704 | 67 | 300 | 3.5 | 7.8 | 0.00 | 0.00 | 0.00 | 60 | 1018.8 |
| 20260507071824 | 67 | 310 | 3.5 | 7.8 | 0.00 | 0.00 | 0.00 | 59 | 1018.7 |
| 20260507070903 | 67 | 339 | 2.6 | 7.0 | 0.00 | 0.00 | 0.00 | 62 | 1018.6 |
| 20260507070008 | 67 | 302 | 2.6 | 7.0 | 0.00 | 0.00 | 0.00 | 62 | 1018.5 |
| 20260507065403 | 66 | 317 | 2.6 | 7.0 | 0.00 | 0.00 | 0.00 | 63 | 1018.4 |
| 20260507064504 | 65 | 304 | 3.5 | 7.0 | 0.00 | 0.00 | 0.00 | 65 | 1018.7 |
| 20260507063603 | 65 | 338 | 3.5 | 8.7 | 0.00 | 0.00 | 0.00 | 66 | 1018.5 |
| 20260507062703 | 64 | 322 | 4.3 | 8.7 | 0.00 | 0.00 | 0.00 | 67 | 1018.7 |
| 20260507061803 | 64 | 318 | 4.3 | 9.6 | 0.00 | 0.00 | 0.00 | 68 | 1018.6 |
| 20260507060903 | 64 | 302 | 3.5 | 8.7 | 0.00 | 0.00 | 0.00 | 67 | 1018.7 |
| 20260507060005 | 62 | 328 | 3.5 | 7.8 | 0.00 | 0.00 | 0.00 | 68 | 1018.9 |
| 20260507055404 | 63 | 318 | 4.3 | 7.8 | 0.00 | 0.00 | 0.00 | 69 | 1019.1 |
| 20260507054503 | 63 | 314 | 3.5 | 7.8 | 0.00 | 0.00 | 0.00 | 70 | 1019.0 |
| 20260507053624 | 61 | 310 | 4.3 | 8.7 | 0.00 | 0.00 | 0.00 | 71 | 1019.0 |
| 20260507052703 | 61 | 305 | 3.5 | 7.8 | 0.00 | 0.00 | 0.00 | 72 | 1018.8 |
| 20260507051803 | 60 | 298 | 3.5 | 7.0 | 0.00 | 0.00 | 0.00 | 76 | 1019.0 |
| 20260507050903 | 59 | 302 | 3.5 | 7.8 | 0.00 | 0.00 | 0.00 | 77 | 1019.0 |
| 20260507050004 | 58 | 305 | 4.3 | 7.8 | 0.00 | 0.00 | 0.00 | 77 | 1019.1 |
| 20260507045425 | 58 | 311 | 4.3 | 7.8 | 0.00 | 0.00 | 0.00 | 78 | 1018.9 |
| 20260507044503 | 58 | 306 | 4.3 | 7.8 | 0.00 | 0.00 | 0.00 | 78 | 1019.0 |
| 20260507043603 | 57 | 313 | 3.5 | 6.1 | 0.00 | 0.00 | 0.00 | 79 | 1019.0 |
| 20260507042703 | 57 | 308 | 3.5 | 7.8 | 0.00 | 0.00 | 0.00 | 80 | 1019.0 |
| 20260507041803 | 56 | 310 | 3.5 | 6.1 | 0.00 | 0.00 | 0.00 | 80 | 1019.1 |
| 20260507040903 | 56 | 322 | 1.7 | 5.2 | 0.00 | 0.00 | 0.00 | 80 | 1018.9 |
| 20260507040003 | 56 | 312 | 1.7 | 3.5 | 0.00 | 0.00 | 0.00 | 81 | 1018.9 |
| 20260507035405 | 55 | 315 | 0.9 | 2.6 | 0.00 | 0.00 | 0.00 | 81 | 1018.9 |
| 20260507034524 | 55 | 314 | 1.7 | 3.5 | 0.00 | 0.00 | 0.00 | 82 | 1018.9 |
| 20260507033603 | 54 | 313 | 2.6 | 5.2 | 0.00 | 0.00 | 0.00 | 83 | 1019.1 |
| 20260507032703 | 54 | 304 | 3.5 | 5.2 | 0.00 | 0.00 | 0.00 | 83 | 1018.6 |
| 20260507031803 | 54 | 320 | 1.7 | 5.2 | 0.00 | 0.00 | 0.00 | 83 | 1018.5 |
| 20260507030903 | 54 | 341 | 1.7 | 7.0 | 0.00 | 0.00 | 0.00 | 83 | 1018.5 |
| 20260507030003 | 54 | 349 | 2.6 | 7.0 | 0.00 | 0.00 | 0.00 | 83 | 1018.3 |
| 20260507025403 | 54 | 345 | 1.7 | 6.1 | 0.00 | 0.00 | 0.00 | 84 | 1018.2 |
| 20260507024524 | 54 | 347 | 2.6 | 6.1 | 0.00 | 0.00 | 0.00 | 84 | 1018.3 |
| 20260507023603 | 54 | 328 | 1.7 | 5.2 | 0.00 | 0.00 | 0.00 | 84 | 1018.0 |
| 20260507022704 | 54 | 332 | 1.7 | 3.5 | 0.00 | 0.00 | 0.00 | 85 | 1018.1 |
| 20260507021803 | 54 | 324 | 1.7 | 5.2 | 0.00 | 0.00 | 0.00 | 85 | 1018.0 |
| 20260507020925 | 54 | 310 | 3.5 | 7.0 | 0.00 | 0.00 | 0.00 | 85 | 1017.7 |
| 20260507020004 | 53 | 306 | 4.3 | 7.0 | 0.00 | 0.00 | 0.00 | 86 | 1017.7 |
| 20260507015403 | 53 | 308 | 3.5 | 6.1 | 0.00 | 0.00 | 0.00 | 86 | 1017.7 |
| 20260507014503 | 54 | 308 | 3.5 | 6.1 | 0.00 | 0.00 | 0.00 | 86 | 1017.6 |
| 20260507013604 | 54 | 309 | 3.5 | 6.1 | 0.00 | 0.00 | 0.00 | 85 | 1017.6 |
| 20260507012704 | 54 | 307 | 3.5 | 6.1 | 0.00 | 0.00 | 0.00 | 84 | 1017.5 |
| 20260507011824 | 54 | 311 | 2.6 | 5.2 | 0.00 | 0.00 | 0.00 | 85 | 1017.4 |
| 20260507010003 | 54 | 310 | 4.3 | 6.1 | 0.00 | 0.00 | 0.00 | 84 | 1017.3 |
| 20260507005403 | 54 | 304 | 4.3 | 6.1 | 0.00 | 0.00 | 0.00 | 84 | 1017.6 |
| 20260507004504 | 55 | 310 | 3.5 | 6.1 | 0.00 | 0.00 | 0.00 | 85 | 1017.5 |
| 20260507003603 | 55 | 306 | 2.6 | 5.2 | 0.00 | 0.00 | 0.00 | 85 | 1017.2 |
| 20260507002704 | 55 | 311 | 3.5 | 6.1 | 0.00 | 0.00 | 0.00 | 84 | 1017.3 |
| 20260507001803 | 55 | 308 | 4.3 | 6.1 | 0.00 | 0.00 | 0.00 | 84 | 1017.2 |
| 20260507000903 | 55 | 310 | 4.3 | 6.1 | 0.00 | 0.00 | 0.00 | 84 | 1017.1 |
| 20260507000023 | 55 | 310 | 3.5 | 5.2 | 0.00 | 0.00 | 0.00 | 84 | 1017.0 |
| 20260506235402 | 56 | 312 | 1.7 | 3.5 | 0.00 | 0.00 | 0.00 | 83 | 1017.1 |
| 20260506234502 | 56 | 309 | 0.9 | 2.6 | 0.00 | 0.00 | 0.00 | 83 | 1017.4 |
| 20260506233602 | 56 | 306 | 2.6 | 5.2 | 0.00 | 0.00 | 0.00 | 83 | 1017.0 |
| 20260506232702 | 56 | 311 | 3.5 | 6.1 | 0.00 | 0.00 | 0.00 | 83 | 1017.0 |
| 20260506231802 | 56 | 309 | 3.5 | 6.1 | 0.00 | 0.00 | 0.00 | 83 | 1017.0 |
| 20260506230902 | 56 | 308 | 4.3 | 6.1 | 0.00 | 0.00 | 0.00 | 83 | 1017.1 |
| 20260506230002 | 56 | 308 | 4.3 | 7.0 | 0.00 | 0.00 | 0.00 | 82 | 1017.3 |
| 20260506225402 | 56 | 305 | 3.5 | 6.1 | 0.00 | 0.00 | 0.00 | 82 | 1017.3 |
| 20260506224502 | 56 | 311 | 4.3 | 7.0 | 0.00 | 0.00 | 0.00 | 82 | 1017.4 |
| 20260506223602 | 56 | 312 | 4.3 | 7.0 | 0.00 | 0.00 | 0.00 | 82 | 1017.1 |
| 20260506222702 | 57 | 309 | 4.3 | 6.1 | 0.00 | 0.00 | 0.00 | 82 | 1017.3 |
| 20260506221802 | 56 | 312 | 4.3 | 6.1 | 0.00 | 0.00 | 0.00 | 82 | 1017.5 |
| 20260506220923 | 57 | 311 | 2.6 | 5.2 | 0.00 | 0.00 | 0.00 | 82 | 1017.3 |
| 20260506220023 | 57 | 307 | 3.5 | 6.1 | 0.00 | 0.00 | 0.00 | 81 | 1017.6 |
| 20260506215402 | 57 | 309 | 3.5 | 5.2 | 0.00 | 0.00 | 0.00 | 82 | 1017.4 |
| 20260506214502 | 57 | 307 | 4.3 | 6.1 | 0.00 | 0.00 | 0.00 | 82 | 1017.4 |
| 20260506213602 | 57 | 307 | 4.3 | 7.0 | 0.00 | 0.00 | 0.00 | 82 | 1017.5 |
| 20260506212702 | 57 | 302 | 6.1 | 8.7 | 0.00 | 0.00 | 0.00 | 81 | 1017.6 |
| 20260506211802 | 57 | 301 | 5.2 | 7.8 | 0.00 | 0.00 | 0.00 | 81 | 1017.6 |
| 20260506210903 | 57 | 310 | 5.2 | 7.8 | 0.00 | 0.00 | 0.00 | 80 | 1017.6 |
| 20260506210023 | 58 | 309 | 5.2 | 7.8 | 0.00 | 0.00 | 0.00 | 80 | 1017.7 |
| 20260506205403 | 58 | 308 | 5.2 | 7.8 | 0.00 | 0.00 | 0.00 | 79 | 1017.6 |
| 20260506204502 | 58 | 307 | 5.2 | 7.8 | 0.00 | 0.00 | 0.00 | 78 | 1017.5 |
| 20260506203603 | 58 | 309 | 5.2 | 8.7 | 0.00 | 0.00 | 0.00 | 77 | 1017.5 |
| 20260506202702 | 59 | 314 | 6.1 | 11.3 | 0.00 | 0.00 | 0.00 | 76 | 1017.3 |
| 20260506201802 | 59 | 311 | 6.1 | 11.3 | 0.00 | 0.00 | 0.00 | 76 | 1017.6 |
| 20260506200902 | 59 | 315 | 3.5 | 6.1 | 0.00 | 0.00 | 0.00 | 75 | 1017.2 |
| 20260506200002 | 60 | 305 | 4.3 | 7.0 | 0.00 | 0.00 | 0.00 | 74 | 1017.1 |
| 20260506195402 | 60 | 300 | 4.3 | 7.0 | 0.00 | 0.00 | 0.00 | 73 | 1017.0 |
| 20260506194502 | 61 | 307 | 4.3 | 7.0 | 0.00 | 0.00 | 0.00 | 73 | 1017.1 |
| 20260506193602 | 61 | 313 | 5.2 | 7.8 | 0.00 | 0.00 | 0.00 | 73 | 1017.1 |
| 20260506192703 | 61 | 312 | 4.3 | 6.1 | 0.00 | 0.00 | 0.00 | 72 | 1016.9 |
| 20260506191802 | 62 | 308 | 4.3 | 8.7 | 0.00 | 0.00 | 0.00 | 71 | 1016.9 |
| 20260506190904 | 62 | 308 | 4.3 | 7.8 | 0.00 | 0.00 | 0.00 | 70 | 1017.0 |
| 20260506190003 | 62 | 309 | 3.5 | 7.0 | 0.00 | 0.00 | 0.00 | 71 | 1016.8 |
| 20260506185423 | 62 | 312 | 3.5 | 6.1 | 0.00 | 0.00 | 0.00 | 71 | 1016.9 |
| 20260506184502 | 62 | 311 | 5.2 | 7.8 | 0.00 | 0.00 | 0.00 | 71 | 1016.9 |
| 20260506183603 | 63 | 310 | 5.2 | 7.8 | 0.00 | 0.00 | 0.00 | 70 | 1016.7 |
| 20260506182724 | 64 | 314 | 4.3 | 7.8 | 0.00 | 0.00 | 0.00 | 68 | 1016.6 |
| 20260506181803 | 64 | 308 | 5.2 | 7.8 | 0.00 | 0.00 | 0.00 | 67 | 1016.4 |
| 20260506180903 | 65 | 312 | 3.5 | 6.1 | 0.00 | 0.00 | 0.00 | 66 | 1016.5 |
| 20260506180003 | 65 | 319 | 3.5 | 6.1 | 0.00 | 0.00 | 0.00 | 66 | 1016.4 |
| 20260506175402 | 65 | 314 | 3.5 | 6.1 | 0.00 | 0.00 | 0.00 | 65 | 1016.5 |
| 20260506174502 | 65 | 310 | 4.3 | 6.1 | 0.00 | 0.00 | 0.00 | 63 | 1016.5 |
| 20260506173602 | 66 | 315 | 3.5 | 7.0 | 0.00 | 0.00 | 0.00 | 60 | 1016.1 |
| 20260506172702 | 67 | 311 | 3.5 | 7.0 | 0.00 | 0.00 | 0.00 | 59 | 1016.0 |
| 20260506171802 | 67 | 310 | 4.3 | 7.0 | 0.00 | 0.00 | 0.00 | 59 | 1016.0 |
| 20260506170903 | 67 | 308 | 4.3 | 8.7 | 0.00 | 0.00 | 0.00 | 58 | 1015.6 |
| 20260506170004 | 67 | 313 | 3.5 | 8.7 | 0.00 | 0.00 | 0.00 | 58 | 1015.7 |
| 20260506165403 | 68 | 325 | 2.6 | 6.1 | 0.00 | 0.00 | 0.00 | 59 | 1015.8 |
| 20260506164505 | 68 | 329 | 2.6 | 7.0 | 0.00 | 0.00 | 0.00 | 58 | 1015.6 |
| 20260506163603 | 68 | 316 | 4.3 | 8.7 | 0.00 | 0.00 | 0.00 | 58 | 1015.4 |
| 20260506162723 | 68 | 307 | 3.5 | 8.7 | 0.00 | 0.00 | 0.00 | 59 | 1015.4 |
| 20260506161802 | 69 | 312 | 4.3 | 7.0 | 0.00 | 0.00 | 0.00 | 58 | 1015.3 |
| 20260506160903 | 69 | 314 | 5.2 | 7.8 | 0.00 | 0.00 | 0.00 | 56 | 1015.1 |
| 20260506160003 | 69 | 305 | 4.3 | 7.8 | 0.00 | 0.00 | 0.00 | 56 | 1015.0 |
| 20260506155403 | 69 | 305 | 5.2 | 7.8 | 0.00 | 0.00 | 0.00 | 55 | 1015.1 |
| 20260506154503 | 70 | 305 | 5.2 | 7.8 | 0.00 | 0.00 | 0.00 | 55 | 1014.8 |
| 20260506153603 | 70 | 306 | 4.3 | 7.0 | 0.00 | 0.00 | 0.00 | 53 | 1015.0 |
| 20260506152703 | 71 | 313 | 3.5 | 7.0 | 0.00 | 0.00 | 0.00 | 52 | 1014.7 |
| 20260506151803 | 71 | 312 | 4.3 | 7.0 | 0.00 | 0.00 | 0.00 | 53 | 1014.8 |
| 20260506150903 | 71 | 306 | 4.3 | 7.0 | 0.00 | 0.00 | 0.00 | 52 | 1014.9 |
| 20260506150003 | 71 | 313 | 5.2 | 7.8 | 0.00 | 0.00 | 0.00 | 52 | 1014.8 |
| 20260506145403 | 71 | 313 | 4.3 | 7.8 | 0.00 | 0.00 | 0.00 | 52 | 1014.8 |
| 20260506144503 | 72 | 318 | 2.6 | 6.1 | 0.00 | 0.00 | 0.00 | 51 | 1014.8 |
| 20260506143605 | 72 | 329 | 1.7 | 6.1 | 0.00 | 0.00 | 0.00 | 50 | 1014.9 |